Back to catalog

BREEZE-M DEB

LostHEO
NORAD 41324·DEBRIS·🇷🇺 Russia

Launched May 17, 2012 from Baikonur Cosmodrome

Loading…

Next Passes (next 24 hours)

TLE

StaleSource: Space-Track

Epoch: Oct 28, 2023, 07:05 UTC

1 41324U 12026L   23301.29572420 -.00000034  00000-0  00000+0 0  9992
2 41324   9.8875 211.2528 4190958 270.5271  43.2233  1.79782617 51049

Track BREEZE-M DEB in real time with AllMySat

Download on the App Store